Weather History for KBKF - August, 2013

Change the Weather History Date:

Monday, August 5, 2013

  Actual Average Record
Temperature  
Mean Temperature 74 °F -  
Max Temperature 87 °F 82 °F 93 °F (2000)
Min Temperature 62 °F 58 °F 53 °F (1996)
Cooling Degree Days 10    
Growing Degree Days 24 (Base 50)    
Moisture  
Dew Point 51 °F    
Average Humidity 49    
Maximum Humidity 68    
Minimum Humidity 24    
Precipitation  
Precipitation 0.00 in - - ()
Sea Level Pressure  
Sea Level Pressure 29.92 in    
Wind  
Wind Speed 9 mph (West)    
Max Wind Speed 26 mph    
Max Gust Speed 32 mph    
Visibility 10 miles    
Events Rain    
Averages and records for this station are not official NWS values.
T = Trace of Precipitation, MM = Missing Value Source: NWS Daily Summary

Daily Weather History Graph

Daily Weather History Graph

Search for Another Location

Airport or City:

Trip Planner

Search our weather history database for the weather conditions in past years. The results will help you decide how hot, cold, wet, or windy it might be!

Date:

Astronomy

Aug. 05, 2013 Rise Set
Actual Time 6:02 AM MDT 8:07 PM MDT
Civil Twilight 5:32 AM MDT 8:36 PM MDT
Nautical Twilight 4:55 AM MDT 9:13 PM MDT
Astronomical Twilight 4:16 AM MDT 9:52 PM MDT
Moon 4:59 AM MDT (8/5) 7:09 PM MDT (8/5)
Length of Visible Light 15h 04m
Length of Day
14h 05m
Waning Crescent, 1% of the Moon is Illuminated
Aug 5
Waning Crescent
Aug 6
New
Aug 14
First Quarter
Aug 20
Full
Aug 28
Last Quarter

Hourly Weather History & Observations

Time (MDT) Temp. Dew Point Humidity Pressure Visibility Wind Dir Wind Speed Gust Speed Precip Events Conditions
12:55 AM 68.0 °F 51.8 °F 56% 29.93 in 25.0 mi WSW 10.4 mph - N/A   Scattered Clouds
1:55 AM 68.0 °F 50.0 °F 52% 29.89 in 25.0 mi SSW 12.7 mph - N/A   Scattered Clouds
2:55 AM 66.2 °F 50.0 °F 56% 29.88 in 25.0 mi SSW 13.8 mph - N/A   Partly Cloudy
3:55 AM 64.4 °F 50.0 °F 59% 29.88 in 25.0 mi SW 10.4 mph - N/A   Partly Cloudy
4:55 AM 64.4 °F 50.0 °F 59% 29.87 in 25.0 mi SW 9.2 mph - N/A   Partly Cloudy
5:55 AM 62.6 °F 50.0 °F 63% 29.88 in 70.0 mi SW 9.2 mph - N/A   Scattered Clouds
6:55 AM 64.4 °F 48.2 °F 56% 29.93 in 70.0 mi SW 6.9 mph - N/A   Scattered Clouds
7:55 AM 69.8 °F 50.0 °F 49% 29.95 in 70.0 mi SW 3.5 mph - N/A   Scattered Clouds
8:55 AM 75.2 °F 50.0 °F 41% 29.94 in 70.0 mi SW 4.6 mph - N/A   Mostly Cloudy
9:55 AM 78.8 °F 48.2 °F 34% 29.94 in 70.0 mi WSW 5.8 mph - N/A   Mostly Cloudy
10:55 AM 80.6 °F 48.2 °F 32% 29.94 in 70.0 mi NNE 13.8 mph - N/A   Mostly Cloudy
11:55 AM 82.4 °F 50.0 °F 32% 29.94 in 70.0 mi NNE 8.1 mph - N/A   Mostly Cloudy
12:55 PM 82.4 °F 50.0 °F 32% 29.93 in 70.0 mi NNE 3.5 mph - N/A   Mostly Cloudy
1:55 PM 84.2 °F 48.2 °F 29% 29.90 in 70.0 mi NE 5.8 mph - N/A   Mostly Cloudy
2:55 PM 86.0 °F 48.2 °F 27% 29.88 in 70.0 mi NE 5.8 mph - N/A   Mostly Cloudy
3:55 PM 87.8 °F 46.4 °F 24% 29.87 in 25.0 mi NNE 5.8 mph - N/A   Mostly Cloudy
4:55 PM 84.2 °F 46.4 °F 27% 29.88 in 25.0 mi North 5.8 mph - N/A   Mostly Cloudy
5:55 PM 73.4 °F 51.8 °F 47% 29.93 in 10.0 mi NNE 26.5 mph 32.2 mph N/A   Mostly Cloudy
6:55 PM 71.6 °F 55.4 °F 57% 29.95 in 10.0 mi NNE 10.4 mph - N/A   Mostly Cloudy
7:55 PM 68.0 °F 55.4 °F 64% 29.94 in 10.0 mi NNE 9.2 mph - N/A   Mostly Cloudy
8:55 PM 66.2 °F 55.4 °F 68% 29.94 in 10.0 mi NW 5.8 mph - N/A Rain Light Rain Showers
9:22 PM 66.2 °F 55.4 °F 68% 30.16 in 10.0 mi West 4.6 mph - N/A   Mostly Cloudy
9:55 PM 66.2 °F 53.6 °F 64% 29.92 in 10.0 mi SW 6.9 mph - N/A   Mostly Cloudy
10:55 PM 64.4 °F 53.6 °F 68% 29.92 in 10.0 mi WSW 6.9 mph - N/A   Mostly Cloudy
11:55 PM 64.4 °F 53.6 °F 68% 29.90 in 10.0 mi SSW 8.1 mph - N/A   Mostly Cloudy